User: anonymous   Login
Location: Caltech
(34.1382°N, 118.1253°W)
Time: 15:05:24
(UTC-07:00)
Language:

AO-27 - Orbit

View from above orbital plane
View from above orbital plane
View from above satellite
View from above satellite

Ground track
Ground track

The orbit data is extracted from the following two-line orbital elements,

1 22825U 93061C   16273.41262777  .00000027  00000-0  27901-4 0  9995
2 22825  98.7718 230.3651 0008837  20.4275 339.7259 14.29969686200131
Epoch (UTC): 29 September 2016 09:54:11
Eccentricity: 0.0008837
inclination: 98.7718°
perigee height: 785 km
apogee height: 798 km
right ascension of ascending node: 230.3651°
argument of perigee: 20.4275°
revolutions per day: 14.29969686
mean anomaly at epoch: 339.7259°
orbit number at epoch: 20013

The dashed part of the orbit path shows where the satellite is in the earth's shadow,  

DLR